DW3949 Weather Reports


time (UTC)temp
F
wind
direction
speed
knots
gust
knots
rain 1hr
in
rain 24hr
in
rain mn
in
humidity
%
barometer
mb
20260510044915 57 55 0.0 0.0 0.00 0.00 0.00 88 1010.5
20260510044413 57 55 0.0 0.0 0.00 0.00 0.00 88 1010.5
20260510043915 57 55 0.0 0.0 0.00 0.00 0.00 87 1010.5
20260510043415 58 55 0.0 0.0 0.00 0.00 0.00 87 1010.7
20260510042912 58 55 0.0 0.0 0.00 0.00 0.00 86 1010.6
20260510042401 58 55 0.0 0.0 0.00 0.00 0.00 86 1010.5
20260510041903 58 55 0.0 0.0 0.00 0.00 0.00 86 1010.5
20260510041400 58 55 0.0 0.0 0.00 0.00 0.00 85 1010.4
20260510040857 59 55 0.0 0.0 0.00 0.00 0.00 85 1010.4
20260510040357 59 55 0.0 1.7 0.00 0.00 0.00 84 1010.4
20260510035900 59 55 0.0 1.7 0.00 0.00 0.00 84 1010.4
20260510035352 60 55 0.0 1.7 0.00 0.00 0.00 83 1010.4
20260510034850 60 55 0.0 1.7 0.00 0.00 0.00 83 1010.3
20260510034343 60 55 0.0 0.9 0.00 0.00 0.00 83 1010.3
20260510033844 60 55 0.0 0.9 0.00 0.00 0.00 83 1010.3
20260510033341 60 55 0.0 1.7 0.00 0.00 0.00 83 1010.2
20260510032841 60 55 0.0 1.7 0.00 0.00 0.00 82 1010.2
20260510032339 61 55 0.0 1.7 0.00 0.00 0.00 82 1010.2
20260510031839 61 55 0.0 1.7 0.00 0.00 0.00 82 1010.2
20260510031338 61 55 0.9 1.7 0.00 0.00 0.00 82 1010.2
20260510030837 61 55 0.9 1.7 0.00 0.00 0.00 82 1010.2
20260510030332 61 55 0.0 1.7 0.00 0.00 0.00 82 1010.2
20260510030327 62 55 0.0 2.6 0.00 0.00 0.00 81 1010.2
20260510025931 62 55 0.0 2.6 0.00 0.00 0.00 81 1010.2
20260510025438 62 55 0.9 2.6 0.00 0.00 0.00 81 1010.1
20260510024327 62 55 0.9 1.7 0.00 0.00 0.00 80 1010.1
20260510024323 62 55 0.0 2.6 0.00 0.00 0.00 81 1010.1
20260510023324 62 55 0.0 1.7 0.00 0.00 0.00 79 1010.1
20260510022823 62 55 0.0 1.7 0.00 0.00 0.00 80 1010.1
20260510022323 62 55 0.0 1.7 0.00 0.00 0.00 80 1009.9
20260510022318 62 55 0.0 1.7 0.00 0.00 0.00 80 1010.0
20260510021315 62 55 0.0 1.7 0.00 0.00 0.00 79 1009.9
20260510021310 63 55 0.0 1.7 0.00 0.00 0.00 79 1009.9
20260510020307 63 99 0.0 1.7 0.00 0.00 0.00 78 1009.9
20260510015757 63 84 0.0 2.6 0.00 0.00 0.00 78 1009.8
20260510015256 63 113 0.0 2.6 0.00 0.00 0.00 78 1009.8
20260510014750 64 113 0.9 2.6 0.00 0.00 0.00 77 1009.8
20260510014248 64 90 0.9 3.5 0.00 0.00 0.00 77 1009.8
20260510014241 64 94 0.0 3.5 0.00 0.00 0.00 77 1009.8
20260510013244 65 96 0.9 5.2 0.00 0.00 0.00 75 1009.6
20260510013239 64 107 0.9 3.5 0.00 0.00 0.00 76 1009.7
20260510012236 65 123 0.9 5.2 0.00 0.00 0.00 75 1009.5
20260510011737 65 59 0.9 2.6 0.00 0.00 0.00 75 1009.3
20260510011231 65 110 0.9 5.2 0.00 0.00 0.00 73 1009.2
20260510011227 65 66 0.9 5.2 0.00 0.00 0.00 74 1009.3
20260510010216 66 82 0.9 3.5 0.00 0.00 0.00 72 1009.0
20260510005717 66 107 0.9 3.5 0.00 0.00 0.00 72 1009.1
20260510005211 65 162 0.9 3.5 0.00 0.00 0.00 71 1009.0
20260510004712 65 89 0.0 3.5 0.00 0.00 0.00 71 1008.9
20260510004204 64 323 0.0 1.7 0.00 0.00 0.00 69 1008.9
20260510003704 65 323 0.0 0.0 0.00 0.00 0.00 68 1008.8
20260510003202 65 323 0.0 0.0 0.00 0.00 0.00 68 1008.8
20260510002703 65 323 0.0 0.0 0.00 0.00 0.00 67 1008.8
20260510002200 66 323 0.0 0.0 0.00 0.00 0.00 66 1008.7
20260510001657 66 323 0.0 0.0 0.00 0.00 0.00 66 1008.8
20260510001159 67 323 0.0 0.0 0.00 0.00 0.00 66 1008.7
20260510000655 67 323 0.0 0.0 0.00 0.00 0.00 65 1008.7
20260510000149 68 323 0.0 0.0 0.00 0.00 0.00 64 1008.7
20260509235651 68 323 0.0 0.0 0.00 0.00 0.00 64 1008.7
20260509235143 68 323 0.0 0.0 0.00 0.00 0.00 63 1008.6
20260509234635 69 323 0.0 0.0 0.00 0.00 0.00 63 1008.6
20260509234132 69 323 0.0 0.0 0.00 0.00 0.00 63 1008.6
20260509233631 69 323 0.0 0.0 0.00 0.00 0.00 64 1008.5
20260509233133 69 323 0.0 1.7 0.00 0.00 0.00 64 1008.5
20260509232626 69 323 0.0 1.7 0.00 0.00 0.00 62 1008.4
20260509232621 69 323 0.0 1.7 0.00 0.00 0.00 63 1008.4
20260509231623 69 323 0.0 1.7 0.00 0.00 0.00 62 1008.3
20260509231121 70 323 0.0 1.7 0.00 0.00 0.00 61 1008.3
20260509230621 70 323 0.9 1.7 0.00 0.00 0.00 60 1008.3
20260509230124 70 323 0.9 4.3 0.00 0.00 0.00 60 1008.3
20260509230119 71 323 0.9 4.3 0.00 0.00 0.00 59 1008.3
20260509225733 71 323 1.7 4.3 0.00 0.00 0.00 59 1008.4
20260509224609 71 289 0.9 4.3 0.00 0.00 0.00 58 1008.4
20260509224109 71 113 0.0 1.7 0.00 0.00 0.00 59 1008.3
20260509223609 71 320 0.0 1.7 0.00 0.00 0.00 59 1008.3
20260509223100 71 319 0.0 3.5 0.00 0.00 0.00 58 1008.3
20260509222559 72 319 0.9 3.5 0.00 0.00 0.00 57 1008.4
20260509222100 72 319 0.9 3.5 0.00 0.00 0.00 55 1008.4
20260509221552 71 313 0.9 3.5 0.00 0.00 0.00 60 1008.4
20260509221050 71 50 0.9 3.5 0.00 0.00 0.00 57 1008.3
20260509220546 71 329 1.7 3.5 0.00 0.00 0.00 57 1008.3
20260509220541 72 271 1.7 3.5 0.00 0.00 0.00 55 1008.3
20260509215539 71 323 0.9 3.5 0.00 0.00 0.00 57 1008.3
20260509215040 71 260 0.0 4.3 0.00 0.00 0.00 59 1008.3
20260509214537 71 260 0.9 3.5 0.00 0.00 0.00 58 1008.4
20260509214041 72 323 0.9 8.7 0.00 0.00 0.00 55 1008.3
20260509214037 71 260 0.9 4.3 0.00 0.00 0.00 58 1008.3
20260509213038 72 318 0.9 8.7 0.00 0.00 0.00 57 1008.4
20260509212538 72 322 1.7 8.7 0.00 0.00 0.00 60 1008.4
20260509212037 73 301 2.6 8.7 0.00 0.00 0.00 55 1008.3
20260509211540 72 37 1.7 7.0 0.00 0.00 0.00 58 1008.4
20260509211535 72 321 1.7 7.0 0.00 0.00 0.00 56 1008.4
20260509210537 72 292 1.7 7.0 0.00 0.00 0.00 57 1008.3
20260509210032 71 313 0.9 7.0 0.00 0.00 0.00 62 1008.3
20260509210028 73 280 1.7 7.0 0.00 0.00 0.00 57 1008.4
20260509205027 70 204 1.7 7.0 0.00 0.00 0.00 61 1008.4
20260509204521 71 49 2.6 7.0 0.00 0.00 0.00 58 1008.4
20260509204024 72 313 1.7 4.3 0.00 0.00 0.00 57 1008.4
20260509204019 73 38 2.6 6.1 0.00 0.00 0.00 55 1008.4
20260509203017 71 175 1.7 4.3 0.00 0.00 0.00 59 1008.4
20260509202516 70 93 0.9 5.2 0.00 0.00 0.00 66 1008.3
20260509202016 71 211 0.9 5.2 0.00 0.00 0.00 62 1008.3
20260509201513 71 216 1.7 6.1 0.00 0.00 0.00 61 1008.3
20260509201013 71 151 1.7 6.1 0.00 0.00 0.00 62 1008.3
20260509200510 71 265 1.7 4.3 0.00 0.00 0.00 63 1008.4
20260509200010 70 190 1.7 4.3 0.00 0.00 0.00 63 1008.5
20260509195509 69 192 0.9 6.1 0.00 0.00 0.00 65 1008.5
20260509195005 70 189 0.9 6.1 0.00 0.00 0.00 64 1008.6
20260509194504 69 269 1.7 6.1 0.00 0.00 0.00 65 1008.6
20260509194004 69 184 1.7 7.0 0.00 0.00 0.00 64 1008.7
20260509193500 69 231 1.7 7.0 0.00 0.00 0.00 65 1008.9
20260509192959 69 346 1.7 7.0 0.00 0.00 0.00 62 1008.9
20260509192458 70 188 1.7 7.0 0.00 0.00 0.00 64 1009.0
20260509191957 69 336 0.9 3.5 0.00 0.00 0.00 63 1009.1
20260509191448 69 244 1.7 6.1 0.00 0.00 0.00 62 1009.2
20260509190946 68 173 1.7 6.1 0.00 0.00 0.00 64 1009.4
20260509190447 69 190 1.7 6.1 0.00 0.00 0.00 62 1009.5
20260509185944 69 211 1.7 6.1 0.00 0.00 0.00 62 1009.5
20260509185445 70 94 1.7 6.1 0.00 0.00 0.00 58 1009.3
20260509184946 69 320 1.7 6.1 0.00 0.00 0.00 63 1009.3
20260509184443 67 178 1.7 3.5 0.00 0.00 0.00 65 1009.6
20260509184437 68 208 0.9 3.5 0.00 0.00 0.00 64 1009.5
20260509183441 67 20 0.9 3.5 0.00 0.00 0.00 63 1009.6
20260509183436 67 163 0.9 3.5 0.00 0.00 0.00 65 1009.6
20260509182435 67 348 0.9 3.5 0.00 0.00 0.00 63 1009.6
20260509181930 67 305 0.9 1.7 0.00 0.00 0.00 63 1009.5
20260509181434 67 279 0.9 1.7 0.00 0.00 0.00 64 1009.7
20260509181429 66 190 0.9 1.7 0.00 0.00 0.00 66 1009.9
20260509180428 66 239 0.9 4.3 0.00 0.00 0.00 66 1010.1
20260509175929 66 136 0.9 4.3 0.00 0.00 0.00 65 1010.3
20260509175432 66 277 1.7 3.5 0.00 0.00 0.00 66 1010.4
20260509175428 65 277 0.0 3.5 0.00 0.00 0.00 68 1010.4
20260509175032 65 277 0.9 3.5 0.00 0.00 0.00 67 1010.4
20260509174542 67 351 1.7 7.0 0.00 0.00 0.00 62 1010.4
20260509173427 67 317 2.6 7.0 0.00 0.00 0.00 61 1010.5
20260509172920 66 273 1.7 7.0 0.00 0.00 0.00 64 1010.7
20260509172915 67 32 2.6 7.0 0.00 0.00 0.00 62 1010.5
20260509171915 66 60 1.7 5.2 0.00 0.00 0.00 64 1010.7
20260509171417 67 303 1.7 5.2 0.00 0.00 0.00 62 1010.8
20260509170918 65 309 1.7 6.1 0.00 0.00 0.00 64 1010.8
20260509170914 65 309 1.7 5.2 0.00 0.00 0.00 65 1010.8
20260509165914 65 320 0.9 6.1 0.00 0.00 0.00 64 1010.9
20260509165404 65 265 1.7 4.3 0.00 0.00 0.00 62 1010.8
20260509164903 65 292 1.7 5.2 0.00 0.00 0.00 64 1010.8
20260509164520 65 350 1.7 4.3 0.00 0.00 0.00 62 1010.7
20260509164408 64 302 1.7 4.3 0.00 0.00 0.00 63 1010.8
20260509164404 65 262 1.7 5.2 0.00 0.00 0.00 64 1010.8
20260509162902 65 355 0.9 3.5 0.00 0.00 0.00 63 1010.8
20260509162857 65 290 1.7 3.5 0.00 0.00 0.00 62 1010.8
20260509161903 64 302 1.7 3.5 0.00 0.00 0.00 66 1011.0
20260509161858 63 5 0.9 3.5 0.00 0.00 0.00 64 1010.8
20260509161513 64 328 1.7 2.6 0.00 0.00 0.00 65 1010.9
20260509160400 64 221 0.9 2.6 0.00 0.00 0.00 65 1011.0
20260509160355 64 155 0.9 2.6 0.00 0.00 0.00 63 1010.9
20260509155353 63 94 0.9 3.5 0.00 0.00 0.00 66 1011.0
20260509154848 63 131 0.9 5.2 0.00 0.00 0.00 66 1011.0
20260509154343 64 138 1.7 6.1 0.00 0.00 0.00 63 1011.0
20260509153842 64 254 0.9 6.1 0.00 0.00 0.00 62 1011.0
20260509153341 63 306 0.9 3.5 0.00 0.00 0.00 64 1011.1
20260509152842 64 290 1.7 3.5 0.00 0.00 0.00 63 1011.2
20260509152341 63 324 0.9 3.5 0.00 0.00 0.00 65 1011.1
20260509151841 63 287 0.9 3.5 0.00 0.00 0.00 65 1011.2
20260509151340 62 287 0.9 3.5 0.00 0.00 0.00 64 1011.2
20260509150840 62 153 0.9 3.5 0.00 0.00 0.00 65 1011.2
20260509150340 62 203 0.9 3.5 0.00 0.00 0.00 65 1011.3
20260509145839 62 131 0.9 3.5 0.00 0.00 0.00 66 1011.3
20260509145344 60 355 0.9 1.7 0.00 0.00 0.00 66 1011.5
20260509145340 61 355 0.9 1.7 0.00 0.00 0.00 67 1011.5
20260509144855 60 355 0.9 1.7 0.00 0.00 0.00 70 1011.6
20260509143830 60 244 0.9 2.6 0.00 0.00 0.00 69 1011.6
20260509143825 60 185 0.9 4.3 0.00 0.00 0.00 66 1011.6
20260509142824 60 67 0.9 4.3 0.00 0.00 0.00 67 1011.7
20260509142323 60 138 0.9 4.3 0.00 0.00 0.00 68 1011.8
20260509142319 60 169 0.9 4.3 0.00 0.00 0.00 68 1011.7
20260509141320 59 159 0.9 1.7 0.00 0.00 0.00 67 1011.8
20260509140825 59 101 0.9 2.6 0.00 0.00 0.00 68 1011.5
20260509140821 59 165 0.9 1.7 0.00 0.00 0.00 66 1011.6
20260509135814 59 194 0.9 1.7 0.00 0.00 0.00 67 1011.6
20260509135810 59 132 0.9 2.6 0.00 0.00 0.00 68 1011.5
20260509134758 59 142 0.9 2.6 0.00 0.00 0.00 66 1011.6
20260509134259 59 158 0.9 2.6 0.00 0.00 0.00 66 1011.6
20260509133756 59 111 0.9 2.6 0.00 0.00 0.00 66 1011.7
20260509133257 59 180 0.9 2.6 0.00 0.00 0.00 65 1011.7
20260509132758 59 156 0.9 2.6 0.00 0.00 0.00 68 1011.6
20260509132301 59 150 0.9 2.6 0.00 0.00 0.00 67 1011.6
20260509132257 59 227 0.9 2.6 0.00 0.00 0.00 66 1011.6
20260509131913 59 158 0.9 2.6 0.00 0.00 0.00 66 1011.7
20260509131412 59 154 0.9 2.6 0.00 0.00 0.00 68 1011.7
20260509130912 58 355 0.9 2.6 0.00 0.00 0.00 68 1011.7
20260509130248 58 154 0.9 2.6 0.00 0.00 0.00 67 1011.7
20260509130244 59 315 0.9 2.6 0.00 0.00 0.00 68 1011.7
20260509124741 59 186 0.9 2.6 0.00 0.00 0.00 66 1011.6
20260509124238 59 315 0.9 2.6 0.00 0.00 0.00 68 1011.6
20260509123738 58 199 0.0 1.7 0.00 0.00 0.00 70 1011.6
20260509123234 58 296 0.0 1.7 0.00 0.00 0.00 74 1011.6
20260509122733 58 296 0.0 1.7 0.00 0.00 0.00 67 1011.7
20260509122232 58 277 0.9 4.3 0.00 0.00 0.00 71 1011.6
20260509121737 58 236 0.9 3.5 0.00 0.00 0.00 67 1011.7
20260509121733 58 21 0.9 4.3 0.00 0.00 0.00 68 1011.7
20260509120732 58 104 0.9 2.6 0.00 0.00 0.00 70 1011.6
20260509120230 58 16 0.9 2.6 0.00 0.00 0.00 70 1011.6
20260509115726 57 29 0.0 2.6 0.00 0.00 0.00 69 1011.5
20260509115228 57 38 0.0 1.7 0.00 0.00 0.00 68 1011.5
20260509114724 57 37 0.0 1.7 0.00 0.00 0.00 70 1011.4
20260509114224 57 37 0.0 1.7 0.00 0.00 0.00 72 1011.3
20260509113725 57 38 0.0 1.7 0.00 0.00 0.00 70 1011.4
20260509113224 57 37 0.0 1.7 0.00 0.00 0.00 70 1011.2
20260509112722 57 38 0.0 1.7 0.00 0.00 0.00 70 1011.2
20260509112224 56 38 0.0 1.7 0.00 0.00 0.00 72 1011.1
20260509111722 56 38 0.0 1.7 0.00 0.00 0.00 72 1011.1
20260509111224 56 32 0.0 1.7 0.00 0.00 0.00 72 1011.0
20260509110721 56 32 0.0 0.9 0.00 0.00 0.00 71 1011.1
20260509110223 56 32 0.0 0.9 0.00 0.00 0.00 70 1011.1
20260509110219 56 32 0.0 0.9 0.00 0.00 0.00 69 1011.0
20260509105834 55 32 0.0 0.9 0.00 0.00 0.00 69 1011.0
20260509105329 55 32 0.0 0.9 0.00 0.00 0.00 70 1011.0
20260509104213 55 178 0.0 0.9 0.00 0.00 0.00 70 1010.9
20260509103714 55 178 0.0 0.9 0.00 0.00 0.00 69 1010.9
20260509103203 55 178 0.0 0.9 0.00 0.00 0.00 68 1010.8
20260509102659 55 178 0.0 0.9 0.00 0.00 0.00 68 1010.8
20260509102202 55 142 0.0 0.9 0.00 0.00 0.00 69 1010.7
20260509101659 55 142 0.0 0.9 0.00 0.00 0.00 68 1010.8
20260509101158 55 142 0.0 0.9 0.00 0.00 0.00 67 1010.8
20260509100658 55 336 0.0 0.0 0.00 0.00 0.00 69 1010.8
20260509100154 56 336 0.0 0.0 0.00 0.00 0.00 68 1010.8
20260509095651 56 336 0.0 0.0 0.00 0.00 0.00 67 1010.7
20260509095151 56 336 0.0 0.0 0.00 0.00 0.00 66 1010.7
20260509094651 56 336 0.0 0.0 0.00 0.00 0.00 66 1010.8
20260509094158 56 336 0.0 0.0 0.00 0.00 0.00 69 1010.9
20260509094154 56 336 0.0 0.0 0.00 0.00 0.00 67 1010.7
20260509093146 57 336 0.0 0.9 0.00 0.00 0.00 64 1010.9
20260509092650 57 336 0.0 1.7 0.00 0.00 0.00 63 1011.0
20260509092644 57 336 0.0 0.9 0.00 0.00 0.00 64 1011.0
20260509091643 57 336 0.0 1.7 0.00 0.00 0.00 62 1011.0
20260509091140 57 336 0.0 1.7 0.00 0.00 0.00 63 1011.1
20260509090642 56 336 0.0 1.7 0.00 0.00 0.00 63 1011.1
20260509090142 57 336 0.0 1.7 0.00 0.00 0.00 64 1011.1
20260509085642 57 168 0.0 1.7 0.00 0.00 0.00 64 1011.2
20260509085638 57 168 0.0 1.7 0.00 0.00 0.00 63 1011.2
20260509085252 57 168 0.0 1.7 0.00 0.00 0.00 65 1011.2
20260509084136 57 168 0.0 1.7 0.00 0.00 0.00 67 1011.2
20260509083625 57 168 0.0 1.7 0.00 0.00 0.00 64 1011.3
20260509083126 57 168 0.0 1.7 0.00 0.00 0.00 65 1011.3
20260509082626 58 168 0.0 1.7 0.00 0.00 0.00 60 1011.3
20260509082112 58 168 0.0 1.7 0.00 0.00 0.00 61 1011.4
20260509081613 58 162 0.9 1.7 0.00 0.00 0.00 60 1011.5
20260509081109 58 162 0.9 1.7 0.00 0.00 0.00 60 1011.5
20260509080611 58 162 0.9 2.6 0.00 0.00 0.00 60 1011.6
20260509080109 58 5 0.9 2.6 0.00 0.00 0.00 60 1011.7
20260509075615 57 5 0.0 1.7 0.00 0.00 0.00 69 1011.7
20260509075610 58 5 0.9 1.7 0.00 0.00 0.00 61 1011.7
20260509074609 57 5 0.0 1.7 0.00 0.00 0.00 64 1011.7
20260509074107 57 5 0.0 1.7 0.00 0.00 0.00 65 1011.7
20260509073607 57 5 0.0 1.7 0.00 0.00 0.00 61 1011.7
20260509073107 57 5 0.0 1.7 0.00 0.00 0.00 66 1011.7
20260509072606 57 5 0.0 1.7 0.00 0.00 0.00 67 1011.6
20260509072105 57 5 0.0 1.7 0.00 0.00 0.00 66 1011.6
20260509071605 57 5 0.0 1.7 0.00 0.00 0.00 64 1011.6
20260509071106 57 5 0.0 1.7 0.00 0.00 0.00 63 1011.5
20260509070607 57 5 0.0 1.7 0.00 0.00 0.00 63 1011.5
20260509070104 57 5 0.0 1.7 0.00 0.00 0.00 63 1011.5
20260509065607 57 5 0.0 1.7 0.00 0.00 0.00 64 1011.5
20260509065603 57 5 0.0 1.7 0.00 0.00 0.00 62 1011.5
20260509064601 57 5 0.0 0.9 0.00 0.00 0.00 65 1011.6
20260509064106 57 5 0.0 0.9 0.00 0.00 0.00 65 1011.7
20260509064101 57 5 0.0 0.9 0.00 0.00 0.00 66 1011.6
20260509063713 57 5 0.0 0.9 0.00 0.00 0.00 66 1011.7
20260509062549 57 5 0.0 0.9 0.00 0.00 0.00 66 1011.8
20260509062051 56 5 0.0 0.9 0.00 0.00 0.00 66 1011.8
20260509062047 56 5 0.0 0.9 0.00 0.00 0.00 66 1011.8
20260509061047 56 5 0.0 0.9 0.00 0.00 0.00 66 1011.9
20260509060547 56 5 0.0 0.9 0.00 0.00 0.00 65 1011.9
20260509060047 56 5 0.0 0.9 0.00 0.00 0.00 62 1011.9
20260509055537 56 5 0.0 0.9 0.00 0.00 0.00 62 1011.9
20260509055037 56 5 0.0 0.9 0.00 0.00 0.00 62 1011.9
20260509054536 56 5 0.0 0.9 0.00 0.00 0.00 62 1011.8
20260509054030 57 5 0.0 0.9 0.00 0.00 0.00 61 1012.0
20260509053528 57 5 0.0 0.9 0.00 0.00 0.00 61 1012.0
20260509053027 57 5 0.0 1.7 0.00 0.00 0.00 61 1011.9
20260509052526 57 5 0.0 1.7 0.00 0.00 0.00 63 1012.0
20260509052025 57 5 0.0 1.7 0.00 0.00 0.00 63 1012.0
20260509051525 57 5 0.0 1.7 0.00 0.00 0.00 63 1012.0
20260509051025 57 5 0.0 0.9 0.00 0.00 0.00 63 1012.0
20260509050525 57 5 0.0 0.9 0.00 0.00 0.00 65 1012.0
20260509050025 56 5 0.0 0.9 0.00 0.00 0.00 65 1012.0
20260509045525 57 5 0.0 0.9 0.00 0.00 0.00 63 1011.9